Time,TemperatureF,DewpointF,PressureIn,WindDirection,WindDirectionDegrees,WindSpeedMPH,WindSpeedGustMPH,Humidity,HourlyPrecipIn,Conditions,Clouds,dailyrainin,SolarRadiationWatts/m^2,SoftwareType,DateUTC
2013-08-16 00:01:00,59.0,55.8,30.13,North,5,0.0,0.0,89,0.00,CLR,,0.00,0.0,WeatherDisplay:10.37,2013-08-16 05:01:00,
2013-08-16 00:06:00,59.0,55.4,30.13,North,5,0.0,0.0,88,0.00,CLR,,0.00,0.0,WeatherDisplay:10.37,2013-08-16 05:06:00,
2013-08-16 00:11:00,59.0,55.4,30.14,North,5,0.0,0.0,88,0.00,CLR,,0.00,0.0,WeatherDisplay:10.37,2013-08-16 05:11:00,
2013-08-16 00:19:00,58.9,55.7,30.13,North,5,0.0,0.0,89,0.00,CLR,,0.00,0.0,WeatherDisplay:10.37,2013-08-16 05:19:00,
2013-08-16 00:24:00,59.0,55.8,30.14,North,5,0.0,0.0,89,0.00,CLR,,0.00,0.0,WeatherDisplay:10.37,2013-08-16 05:24:00,
2013-08-16 00:29:00,59.0,55.8,30.14,North,5,0.0,0.0,89,0.00,CLR,,0.00,0.0,WeatherDisplay:10.37,2013-08-16 05:29:00,
2013-08-16 00:34:00,59.0,56.1,30.14,North,5,0.0,0.0,90,0.00,CLR,,0.00,0.0,WeatherDisplay:10.37,2013-08-16 05:34:00,
2013-08-16 00:39:00,59.3,56.4,30.14,North,5,0.0,0.0,90,0.00,CLR,,0.00,0.0,WeatherDisplay:10.37,2013-08-16 05:39:00,
2013-08-16 00:44:00,59.4,56.2,30.14,North,5,0.0,0.0,89,0.00,CLR,,0.00,0.0,WeatherDisplay:10.37,2013-08-16 05:44:00,
2013-08-16 00:49:00,59.5,56.3,30.14,North,5,0.0,0.0,89,0.00,CLR,,0.00,0.0,WeatherDisplay:10.37,2013-08-16 05:49:00,
2013-08-16 00:54:00,59.5,56.3,30.13,North,5,0.0,0.0,89,0.00,CLR,,0.00,0.0,WeatherDisplay:10.37,2013-08-16 05:54:00,
2013-08-16 00:59:00,59.5,56.3,30.13,North,5,0.0,0.0,89,0.00,CLR,,0.00,0.0,WeatherDisplay:10.37,2013-08-16 05:59:00,
2013-08-16 01:04:00,59.6,56.4,30.13,North,5,0.0,0.0,89,0.00,CLR,,0.00,0.0,WeatherDisplay:10.37,2013-08-16 06:04:00,
2013-08-16 01:09:00,59.7,56.5,30.13,North,5,0.0,0.0,89,0.00,CLR,,0.00,0.0,WeatherDisplay:10.37,2013-08-16 06:09:00,
2013-08-16 01:14:00,59.6,56.7,30.13,North,5,0.0,0.0,90,0.00,CLR,,0.00,0.0,WeatherDisplay:10.37,2013-08-16 06:14:00,
2013-08-16 01:19:00,59.6,56.4,30.12,North,5,0.0,0.0,89,0.00,CLR,,0.00,0.0,WeatherDisplay:10.37,2013-08-16 06:19:00,
2013-08-16 01:24:00,59.6,56.4,30.12,North,5,0.0,0.0,89,0.00,CLR,,0.00,0.0,WeatherDisplay:10.37,2013-08-16 06:24:00,
2013-08-16 01:29:00,59.6,56.7,30.12,North,5,0.0,0.0,90,0.00,CLR,,0.00,0.0,WeatherDisplay:10.37,2013-08-16 06:29:00,
2013-08-16 01:34:00,59.6,56.7,30.12,North,5,0.0,0.0,90,0.00,CLR,,0.00,0.0,WeatherDisplay:10.37,2013-08-16 06:34:00,
2013-08-16 01:39:00,59.6,56.7,30.12,North,5,0.0,0.0,90,0.00,CLR,,0.00,0.0,WeatherDisplay:10.37,2013-08-16 06:39:00,
2013-08-16 01:45:00,59.5,56.6,30.12,North,5,0.0,0.0,90,0.00,CLR,,0.00,0.0,WeatherDisplay:10.37,2013-08-16 06:45:00,
2013-08-16 01:50:00,59.5,56.6,30.12,North,5,0.0,0.0,90,0.00,CLR,,0.00,0.0,WeatherDisplay:10.37,2013-08-16 06:50:00,
2013-08-16 01:55:00,59.5,56.9,30.12,North,5,0.0,0.0,91,0.00,CLR,,0.00,0.0,WeatherDisplay:10.37,2013-08-16 06:55:00,
2013-08-16 02:00:00,59.4,56.5,30.12,North,5,1.1,1.1,90,0.00,CLR,,0.00,0.0,WeatherDisplay:10.37,2013-08-16 07:00:00,
2013-08-16 02:05:00,59.3,56.4,30.12,North,5,0.0,0.0,90,0.00,CLR,,0.00,0.0,WeatherDisplay:10.37,2013-08-16 07:05:00,
2013-08-16 02:10:00,59.2,56.6,30.12,North,5,0.0,0.0,91,0.00,CLR,,0.00,0.0,WeatherDisplay:10.37,2013-08-16 07:10:00,
2013-08-16 02:15:00,59.2,56.6,30.12,North,5,0.0,0.0,91,0.00,CLR,,0.00,0.0,WeatherDisplay:10.37,2013-08-16 07:15:00,
2013-08-16 02:20:00,59.2,56.6,30.12,North,5,0.0,0.0,91,0.00,CLR,,0.00,0.0,WeatherDisplay:10.37,2013-08-16 07:20:00,
2013-08-16 02:25:00,59.2,56.6,30.12,North,5,0.0,0.0,91,0.00,CLR,,0.00,0.0,WeatherDisplay:10.37,2013-08-16 07:25:00,
2013-08-16 02:30:00,59.1,56.5,30.12,North,5,0.0,0.0,91,0.00,CLR,,0.00,0.0,WeatherDisplay:10.37,2013-08-16 07:30:00,
2013-08-16 02:35:00,59.1,56.5,30.12,North,5,0.0,0.0,91,0.00,CLR,,0.00,0.0,WeatherDisplay:10.37,2013-08-16 07:35:00,
2013-08-16 02:40:00,59.1,56.5,30.12,North,5,0.0,0.0,91,0.00,CLR,,0.00,0.0,WeatherDisplay:10.37,2013-08-16 07:40:00,
2013-08-16 02:45:00,59.0,56.4,30.11,North,5,0.0,0.0,91,0.00,CLR,,0.00,0.0,WeatherDisplay:10.37,2013-08-16 07:45:00,
2013-08-16 02:50:00,59.0,56.4,30.12,North,5,0.0,0.0,91,0.00,CLR,,0.00,0.0,WeatherDisplay:10.37,2013-08-16 07:50:00,
2013-08-16 02:55:00,59.0,56.4,30.12,North,5,0.0,0.0,91,0.00,CLR,,0.00,0.0,WeatherDisplay:10.37,2013-08-16 07:55:00,
2013-08-16 03:00:00,59.0,56.4,30.12,North,5,0.0,0.0,91,0.00,CLR,,0.00,0.0,WeatherDisplay:10.37,2013-08-16 08:00:00,
2013-08-16 03:05:00,59.0,56.7,30.12,North,5,0.0,0.0,92,0.00,CLR,,0.00,0.0,WeatherDisplay:10.37,2013-08-16 08:05:00,
2013-08-16 03:10:00,59.0,56.4,30.12,North,5,0.0,0.0,91,0.00,CLR,,0.00,0.0,WeatherDisplay:10.37,2013-08-16 08:10:00,
2013-08-16 03:15:00,58.9,56.3,30.12,North,5,0.0,0.0,91,0.00,CLR,,0.00,0.0,WeatherDisplay:10.37,2013-08-16 08:15:00,
2013-08-16 03:20:00,58.8,56.5,30.12,North,5,0.0,0.0,92,0.00,CLR,,0.00,0.0,WeatherDisplay:10.37,2013-08-16 08:20:00,
2013-08-16 03:25:00,58.8,56.5,30.12,North,5,0.0,0.0,92,0.00,CLR,,0.00,0.0,WeatherDisplay:10.37,2013-08-16 08:25:00,
2013-08-16 03:30:00,58.8,56.5,30.12,North,5,0.0,0.0,92,0.00,CLR,,0.00,0.0,WeatherDisplay:10.37,2013-08-16 08:30:00,
2013-08-16 03:35:00,58.7,56.4,30.12,North,5,0.0,0.0,92,0.00,CLR,,0.00,0.0,WeatherDisplay:10.37,2013-08-16 08:35:00,
2013-08-16 03:40:00,58.7,56.4,30.12,North,5,0.0,0.0,92,0.00,CLR,,0.00,0.0,WeatherDisplay:10.37,2013-08-16 08:40:00,
2013-08-16 03:45:00,58.6,56.0,30.12,North,5,0.0,0.0,91,0.00,CLR,,0.00,0.0,WeatherDisplay:10.37,2013-08-16 08:45:00,
2013-08-16 03:50:00,58.6,56.0,30.12,North,5,0.0,0.0,91,0.00,CLR,,0.00,0.0,WeatherDisplay:10.37,2013-08-16 08:50:00,
2013-08-16 03:55:00,58.6,56.0,30.12,North,5,0.0,0.0,91,0.00,CLR,,0.00,0.0,WeatherDisplay:10.37,2013-08-16 08:55:00,
2013-08-16 04:00:00,58.5,55.9,30.12,North,5,0.0,0.0,91,0.00,CLR,,0.00,0.0,WeatherDisplay:10.37,2013-08-16 09:00:00,
2013-08-16 04:05:00,58.4,56.1,30.12,North,5,0.0,0.0,92,0.00,CLR,,0.00,0.0,WeatherDisplay:10.37,2013-08-16 09:05:00,
2013-08-16 04:10:00,58.6,56.6,30.12,North,5,0.0,0.0,93,0.00,CLR,,0.00,0.0,WeatherDisplay:10.37,2013-08-16 09:10:00,
2013-08-16 04:15:00,58.9,56.6,30.12,North,5,1.1,1.1,92,0.00,CLR,,0.00,0.0,WeatherDisplay:10.37,2013-08-16 09:15:00,
2013-08-16 04:20:00,59.1,56.8,30.12,North,5,1.1,0.0,92,0.00,CLR,,0.00,0.0,WeatherDisplay:10.37,2013-08-16 09:20:00,
2013-08-16 04:25:00,59.2,56.6,30.12,North,5,0.0,0.0,91,0.00,CLR,,0.00,0.0,WeatherDisplay:10.37,2013-08-16 09:25:00,
2013-08-16 04:30:00,59.1,56.5,30.12,North,5,0.0,0.0,91,0.00,CLR,,0.00,0.0,WeatherDisplay:10.37,2013-08-16 09:30:00,
2013-08-16 04:35:00,59.0,56.4,30.12,North,5,0.0,0.0,91,0.00,CLR,,0.00,0.0,WeatherDisplay:10.37,2013-08-16 09:35:00,
2013-08-16 04:40:00,59.0,56.1,30.12,North,5,0.0,0.0,90,0.00,CLR,,0.00,0.0,WeatherDisplay:10.37,2013-08-16 09:40:00,
2013-08-16 04:45:00,58.7,55.8,30.12,North,5,0.0,0.0,90,0.00,CLR,,0.00,0.0,WeatherDisplay:10.37,2013-08-16 09:45:00,
2013-08-16 04:50:00,58.5,55.6,30.12,North,5,0.0,0.0,90,0.00,CLR,,0.00,0.0,WeatherDisplay:10.37,2013-08-16 09:50:00,
2013-08-16 04:55:00,58.2,55.3,30.12,North,5,0.0,0.0,90,0.00,CLR,,0.00,0.0,WeatherDisplay:10.37,2013-08-16 09:55:00,
2013-08-16 05:00:00,58.0,55.1,30.12,North,5,0.0,0.0,90,0.00,CLR,,0.00,0.0,WeatherDisplay:10.37,2013-08-16 10:00:00,
2013-08-16 05:05:00,57.6,54.7,30.12,North,5,0.0,0.0,90,0.00,CLR,,0.00,0.0,WeatherDisplay:10.37,2013-08-16 10:05:00,
2013-08-16 05:10:00,57.1,53.6,30.12,North,5,0.0,0.1,88,0.00,CLR,,0.00,0.0,WeatherDisplay:10.37,2013-08-16 10:10:00,
2013-08-16 05:15:00,56.8,53.9,30.12,North,5,2.3,2.3,90,0.00,CLR,,0.00,0.0,WeatherDisplay:10.37,2013-08-16 10:15:00,
2013-08-16 05:20:00,56.9,54.0,30.12,North,5,3.5,3.5,90,0.00,CLR,,0.00,0.0,WeatherDisplay:10.37,2013-08-16 10:20:00,
2013-08-16 05:25:00,56.9,54.0,30.12,North,5,2.3,2.3,90,0.00,CLR,,0.00,0.0,WeatherDisplay:10.37,2013-08-16 10:25:00,
2013-08-16 05:30:00,57.0,54.1,30.13,North,5,2.3,2.3,90,0.00,CLR,,0.00,0.0,WeatherDisplay:10.37,2013-08-16 10:30:00,
2013-08-16 05:35:00,57.3,54.1,30.13,North,5,2.3,2.3,89,0.00,CLR,,0.00,0.0,WeatherDisplay:10.37,2013-08-16 10:35:00,
2013-08-16 05:40:00,57.2,53.7,30.13,North,5,2.3,2.3,88,0.00,CLR,,0.00,0.0,WeatherDisplay:10.37,2013-08-16 10:40:00,
2013-08-16 05:45:00,57.1,53.9,30.13,North,5,2.3,2.3,89,0.00,CLR,,0.00,0.0,WeatherDisplay:10.37,2013-08-16 10:45:00,
2013-08-16 05:50:00,57.0,53.8,30.14,North,5,2.3,2.3,89,0.00,CLR,,0.00,0.0,WeatherDisplay:10.37,2013-08-16 10:50:00,
2013-08-16 05:55:00,57.0,53.8,30.13,North,5,2.3,2.3,89,0.00,CLR,,0.00,0.0,WeatherDisplay:10.37,2013-08-16 10:55:00,
2013-08-16 06:00:00,57.0,53.8,30.13,North,5,2.3,2.3,89,0.00,CLR,,0.00,0.0,WeatherDisplay:10.37,2013-08-16 11:00:00,
2013-08-16 06:05:00,56.9,53.7,30.14,North,5,2.3,2.3,89,0.00,CLR,,0.00,0.0,WeatherDisplay:10.37,2013-08-16 11:05:00,
2013-08-16 06:10:00,56.8,53.9,30.14,North,5,2.3,2.3,90,0.00,CLR,,0.00,7.0,WeatherDisplay:10.37,2013-08-16 11:10:00,
2013-08-16 06:15:00,56.9,54.0,30.14,North,5,1.1,1.1,90,0.00,CLR,,0.00,9.0,WeatherDisplay:10.37,2013-08-16 11:15:00,
2013-08-16 06:20:00,56.7,53.8,30.14,North,5,2.3,2.3,90,0.00,CLR,,0.00,12.0,WeatherDisplay:10.37,2013-08-16 11:20:00,
2013-08-16 06:25:00,56.7,54.1,30.14,North,5,3.5,3.5,91,0.00,CLR,,0.00,18.0,WeatherDisplay:10.37,2013-08-16 11:25:00,
2013-08-16 06:30:00,56.7,54.1,30.14,North,5,2.3,2.3,91,0.00,CLR,,0.00,21.0,WeatherDisplay:10.37,2013-08-16 11:30:00,
2013-08-16 06:35:00,56.7,54.1,30.14,North,5,1.1,1.1,91,0.00,CLR,,0.00,26.0,WeatherDisplay:10.37,2013-08-16 11:35:00,
2013-08-16 06:40:00,56.5,53.6,30.14,North,5,0.0,0.0,90,0.00,CLR,,0.00,30.0,WeatherDisplay:10.37,2013-08-16 11:40:00,
2013-08-16 06:45:00,56.6,54.0,30.14,North,5,0.0,0.0,91,0.00,CLR,,0.00,35.0,WeatherDisplay:10.37,2013-08-16 11:45:00,
2013-08-16 06:50:00,56.8,54.2,30.15,North,5,0.0,0.0,91,0.00,CLR,,0.00,39.0,WeatherDisplay:10.37,2013-08-16 11:50:00,
2013-08-16 06:55:00,57.1,54.5,30.15,North,5,0.0,0.0,91,0.00,CLR,,0.00,44.0,WeatherDisplay:10.37,2013-08-16 11:55:00,
2013-08-16 07:00:00,57.4,55.1,30.15,North,5,0.0,0.0,92,0.00,CLR,,0.00,49.0,WeatherDisplay:10.37,2013-08-16 12:00:00,
2013-08-16 07:06:00,57.8,55.5,30.15,North,5,0.0,0.0,92,0.00,CLR,,0.00,51.0,WeatherDisplay:10.37,2013-08-16 12:06:00,
2013-08-16 07:11:00,58.5,56.5,30.15,North,5,0.0,0.0,93,0.00,CLR,,0.00,54.0,WeatherDisplay:10.37,2013-08-16 12:11:00,
2013-08-16 07:16:00,59.3,57.3,30.15,North,5,0.0,0.0,93,0.00,CLR,,0.00,54.0,WeatherDisplay:10.37,2013-08-16 12:16:00,
2013-08-16 07:21:00,60.1,57.5,30.15,North,5,0.0,0.0,91,0.00,CLR,,0.00,65.0,WeatherDisplay:10.37,2013-08-16 12:21:00,
2013-08-16 07:26:00,60.5,56.6,30.15,North,5,1.0,1.0,87,0.00,CLR,,0.00,76.0,WeatherDisplay:10.37,2013-08-16 12:26:00,
2013-08-16 07:31:00,61.0,56.8,30.15,North,5,2.3,2.3,86,0.00,CLR,,0.00,79.0,WeatherDisplay:10.37,2013-08-16 12:31:00,
2013-08-16 07:36:00,61.5,57.3,30.15,North,5,0.0,0.0,86,0.00,CLR,,0.00,118.0,WeatherDisplay:10.37,2013-08-16 12:36:00,
2013-08-16 07:41:00,61.9,57.3,30.15,North,5,0.0,0.0,85,0.00,CLR,,0.00,156.0,WeatherDisplay:10.37,2013-08-16 12:41:00,
2013-08-16 07:46:00,62.2,56.6,30.15,North,5,0.0,0.0,82,0.00,CLR,,0.00,120.0,WeatherDisplay:10.37,2013-08-16 12:46:00,
2013-08-16 07:51:00,62.5,56.9,30.15,North,5,0.0,0.0,82,0.00,CLR,,0.00,223.0,WeatherDisplay:10.37,2013-08-16 12:51:00,
2013-08-16 07:56:00,62.9,56.6,30.15,North,5,0.0,0.0,80,0.00,CLR,,0.00,241.0,WeatherDisplay:10.37,2013-08-16 12:56:00,
2013-08-16 08:01:00,63.9,58.3,30.15,ENE,57,3.0,3.0,82,0.00,CLR,,0.00,258.0,WeatherDisplay:10.37,2013-08-16 13:01:00,
2013-08-16 08:06:00,64.5,57.8,30.15,ENE,57,0.0,0.0,79,0.00,CLR,,0.00,267.0,WeatherDisplay:10.37,2013-08-16 13:06:00,
2013-08-16 08:11:00,65.0,58.0,30.16,ENE,57,3.5,3.5,78,0.00,CLR,,0.00,278.0,WeatherDisplay:10.37,2013-08-16 13:11:00,
2013-08-16 08:16:00,65.2,58.5,30.16,ENE,57,3.5,3.5,79,0.00,CLR,,0.00,301.0,WeatherDisplay:10.37,2013-08-16 13:16:00,
2013-08-16 08:21:00,65.5,59.2,30.16,ENE,57,0.0,0.0,80,0.00,CLR,,0.00,316.0,WeatherDisplay:10.37,2013-08-16 13:21:00,
2013-08-16 08:26:00,65.9,58.8,30.16,ENE,57,1.1,1.1,78,0.00,CLR,,0.00,336.0,WeatherDisplay:10.37,2013-08-16 13:26:00,
2013-08-16 08:31:00,66.2,58.8,30.16,ENE,72,3.5,3.5,77,0.00,CLR,,0.00,353.0,WeatherDisplay:10.37,2013-08-16 13:31:00,
2013-08-16 08:36:00,66.2,58.8,30.16,ENE,72,2.3,2.3,77,0.00,CLR,,0.00,367.0,WeatherDisplay:10.37,2013-08-16 13:36:00,
2013-08-16 08:41:00,66.5,58.7,30.16,ENE,72,3.5,3.5,76,0.00,CLR,,0.00,381.0,WeatherDisplay:10.37,2013-08-16 13:41:00,
2013-08-16 08:46:00,66.8,58.6,30.16,ENE,72,0.0,0.0,75,0.00,CLR,,0.00,392.0,WeatherDisplay:10.37,2013-08-16 13:46:00,
2013-08-16 08:51:00,67.3,59.5,30.16,ENE,72,3.5,3.5,76,0.00,CLR,,0.00,406.0,WeatherDisplay:10.37,2013-08-16 13:51:00,
2013-08-16 08:56:00,67.5,59.3,30.16,ENE,72,3.5,3.5,75,0.00,CLR,,0.00,422.0,WeatherDisplay:10.37,2013-08-16 13:56:00,
2013-08-16 09:01:00,67.7,59.1,30.16,ENE,74,4.0,4.0,74,0.00,CLR,,0.00,441.0,WeatherDisplay:10.37,2013-08-16 14:01:00,
2013-08-16 09:06:00,67.9,58.9,30.16,ENE,74,2.0,2.0,73,0.00,CLR,,0.00,459.0,WeatherDisplay:10.37,2013-08-16 14:06:00,
2013-08-16 09:11:00,68.3,58.5,30.16,ENE,74,1.1,1.1,71,0.00,CLR,,0.00,468.0,WeatherDisplay:10.37,2013-08-16 14:11:00,
2013-08-16 09:16:00,69.2,59.0,30.16,ENE,74,1.1,0.0,70,0.00,CLR,,0.00,496.0,WeatherDisplay:10.37,2013-08-16 14:16:00,
2013-08-16 09:21:00,70.1,58.6,30.16,ENE,74,2.3,2.3,67,0.00,CLR,,0.00,504.0,WeatherDisplay:10.37,2013-08-16 14:21:00,
2013-08-16 09:26:00,70.2,58.3,30.15,ENE,73,1.1,1.1,66,0.00,CLR,,0.00,515.0,WeatherDisplay:10.37,2013-08-16 14:26:00,
2013-08-16 09:31:00,70.8,58.9,30.16,ENE,74,3.5,3.5,66,0.00,CLR,,0.00,529.0,WeatherDisplay:10.37,2013-08-16 14:31:00,
2013-08-16 09:36:00,71.2,58.4,30.16,ENE,74,3.5,3.5,64,0.00,CLR,,0.00,543.0,WeatherDisplay:10.37,2013-08-16 14:36:00,
2013-08-16 09:41:00,71.5,57.3,30.16,East,80,4.6,4.6,61,0.00,CLR,,0.00,561.0,WeatherDisplay:10.37,2013-08-16 14:41:00,
2013-08-16 09:46:00,72.0,55.4,30.16,East,80,0.0,0.0,56,0.00,CLR,,0.00,573.0,WeatherDisplay:10.37,2013-08-16 14:46:00,
2013-08-16 09:51:00,72.8,54.7,30.16,East,80,4.6,4.6,53,0.00,CLR,,0.00,591.0,WeatherDisplay:10.37,2013-08-16 14:51:00,
2013-08-16 09:56:00,73.3,55.6,30.16,East,80,3.5,3.5,54,0.00,CLR,,0.00,605.0,WeatherDisplay:10.37,2013-08-16 14:56:00,
2013-08-16 10:01:00,73.5,55.8,30.16,East,97,4.6,4.6,54,0.00,CLR,,0.00,615.0,WeatherDisplay:10.37,2013-08-16 15:01:00,
2013-08-16 10:06:00,73.6,55.4,30.16,East,98,3.5,3.5,53,0.00,CLR,,0.00,629.0,WeatherDisplay:10.37,2013-08-16 15:06:00,
2013-08-16 10:11:00,73.9,56.2,30.16,East,94,4.6,4.6,54,0.00,CLR,,0.00,636.0,WeatherDisplay:10.37,2013-08-16 15:11:00,
2013-08-16 10:16:00,74.4,55.6,30.16,NE,55,3.5,3.5,52,0.00,CLR,,0.00,647.0,WeatherDisplay:10.37,2013-08-16 15:16:00,
2013-08-16 10:21:00,74.7,55.9,30.16,ENE,76,3.5,3.5,52,0.00,CLR,,0.00,654.0,WeatherDisplay:10.37,2013-08-16 15:21:00,
2013-08-16 10:26:00,75.2,56.4,30.16,ENE,57,3.5,3.5,52,0.00,CLR,,0.00,668.0,WeatherDisplay:10.37,2013-08-16 15:26:00,
2013-08-16 10:31:00,75.6,56.7,30.16,ESE,109,5.8,5.8,52,0.00,CLR,,0.00,682.0,WeatherDisplay:10.37,2013-08-16 15:31:00,
2013-08-16 10:36:00,75.8,56.4,30.16,ESE,111,3.5,3.5,51,0.00,CLR,,0.00,691.0,WeatherDisplay:10.37,2013-08-16 15:36:00,
2013-08-16 10:41:00,75.8,58.5,30.16,SSE,155,3.5,3.5,55,0.00,CLR,,0.00,700.0,WeatherDisplay:10.37,2013-08-16 15:41:00,
2013-08-16 10:46:00,75.5,56.1,30.16,SE,146,4.6,4.6,51,0.00,CLR,,0.00,703.0,WeatherDisplay:10.37,2013-08-16 15:46:00,
2013-08-16 10:51:00,75.6,56.7,30.16,ESE,110,4.6,4.6,52,0.00,CLR,,0.00,712.0,WeatherDisplay:10.37,2013-08-16 15:51:00,
2013-08-16 10:56:00,75.8,56.9,30.16,ESE,103,3.5,3.5,52,0.00,CLR,,0.00,724.0,WeatherDisplay:10.37,2013-08-16 15:56:00,
2013-08-16 11:01:00,76.2,56.7,30.16,East,82,6.9,6.9,51,0.00,CLR,,0.00,731.0,WeatherDisplay:10.37,2013-08-16 16:01:00,
2013-08-16 11:06:00,76.1,57.2,30.16,ENE,60,3.5,3.5,52,0.00,CLR,,0.00,742.0,WeatherDisplay:10.37,2013-08-16 16:06:00,
2013-08-16 11:11:00,76.0,57.6,30.15,East,98,6.0,6.0,53,0.00,CLR,,0.00,756.0,WeatherDisplay:10.37,2013-08-16 16:11:00,
2013-08-16 11:16:00,76.5,57.6,30.16,ENE,59,5.8,5.8,52,0.00,CLR,,0.00,768.0,WeatherDisplay:10.37,2013-08-16 16:16:00,
2013-08-16 11:21:00,76.7,56.7,30.15,ENE,58,6.9,6.9,50,0.00,CLR,,0.00,779.0,WeatherDisplay:10.37,2013-08-16 16:21:00,
2013-08-16 11:26:00,76.6,56.6,30.16,NNE,22,8.1,8.1,50,0.00,CLR,,0.00,786.0,WeatherDisplay:10.37,2013-08-16 16:26:00,
2013-08-16 11:31:00,76.3,56.3,30.16,NE,34,4.6,4.6,50,0.00,CLR,,0.00,798.0,WeatherDisplay:10.37,2013-08-16 16:31:00,
2013-08-16 11:36:00,76.0,58.7,30.15,NNW,341,3.0,3.0,55,0.00,CLR,,0.00,838.0,WeatherDisplay:10.37,2013-08-16 16:36:00,
2013-08-16 11:41:00,76.6,57.7,30.15,East,101,5.8,5.8,52,0.00,CLR,,0.00,860.0,WeatherDisplay:10.37,2013-08-16 16:41:00,
2013-08-16 11:46:00,77.4,56.2,30.15,ENE,61,6.9,6.9,48,0.00,CLR,,0.00,919.0,WeatherDisplay:10.37,2013-08-16 16:46:00,
2013-08-16 11:51:00,77.7,55.9,30.15,ENE,78,3.5,3.5,47,0.00,CLR,,0.00,872.0,WeatherDisplay:10.37,2013-08-16 16:51:00,
2013-08-16 11:56:00,77.7,56.4,30.15,SSE,149,3.5,3.5,48,0.00,CLR,,0.00,234.0,WeatherDisplay:10.37,2013-08-16 16:56:00,
2013-08-16 12:01:00,77.0,56.4,30.15,SE,140,3.5,3.5,49,0.00,CLR,,0.00,260.0,WeatherDisplay:10.37,2013-08-16 17:01:00,
2013-08-16 12:06:00,77.2,56.6,30.15,NNW,329,6.9,6.9,49,0.00,CLR,,0.00,963.0,WeatherDisplay:10.37,2013-08-16 17:06:00,
2013-08-16 12:12:00,77.3,56.1,30.15,East,101,5.0,5.0,48,0.00,CLR,,0.00,896.0,WeatherDisplay:10.37,2013-08-16 17:12:00,
2013-08-16 12:17:00,77.8,54.8,30.15,NE,40,6.9,6.9,45,0.00,CLR,,0.00,909.0,WeatherDisplay:10.37,2013-08-16 17:17:00,
2013-08-16 12:22:00,78.4,55.3,30.15,East,84,5.0,5.0,45,0.00,CLR,,0.00,916.0,WeatherDisplay:10.37,2013-08-16 17:22:00,
2013-08-16 12:27:00,79.1,55.3,30.15,East,82,6.9,6.9,44,0.00,CLR,,0.00,937.0,WeatherDisplay:10.37,2013-08-16 17:27:00,
2013-08-16 12:32:00,79.3,56.1,30.15,ESE,109,7.0,7.0,45,0.00,CLR,,0.00,991.0,WeatherDisplay:10.37,2013-08-16 17:32:00,
2013-08-16 12:37:00,79.0,55.2,30.15,East,84,6.0,6.0,44,0.00,CLR,,0.00,332.0,WeatherDisplay:10.37,2013-08-16 17:37:00,
2013-08-16 12:42:00,78.5,53.5,30.15,ENE,71,6.9,6.9,42,0.00,CLR,,0.00,410.0,WeatherDisplay:10.37,2013-08-16 17:42:00,
2013-08-16 12:47:00,78.5,54.1,30.15,ENE,77,7.0,7.0,43,0.00,SCT,,0.00,898.0,WeatherDisplay:10.37,2013-08-16 17:47:00,
2013-08-16 12:52:00,78.6,53.6,30.15,East,99,5.0,5.0,42,0.00,SCT,,0.00,594.0,WeatherDisplay:10.37,2013-08-16 17:52:00,
2013-08-16 12:57:00,78.0,55.5,30.15,NE,54,4.0,4.0,46,0.00,SCT,,0.00,260.0,WeatherDisplay:10.37,2013-08-16 17:57:00,
2013-08-16 13:02:00,78.3,55.2,30.15,ENE,62,8.1,8.1,45,0.00,SCT,,0.00,875.0,WeatherDisplay:10.37,2013-08-16 18:02:00,
2013-08-16 13:07:00,78.8,55.0,30.14,NE,55,6.9,6.9,44,0.00,SCT,,0.00,867.0,WeatherDisplay:10.37,2013-08-16 18:07:00,
2013-08-16 13:12:00,78.9,54.5,30.14,East,89,3.5,3.5,43,0.00,SCT,,0.00,860.0,WeatherDisplay:10.37,2013-08-16 18:12:00,
2013-08-16 13:17:00,78.8,55.0,30.14,SSE,162,3.5,3.5,44,0.00,SCT,,0.00,865.0,WeatherDisplay:10.37,2013-08-16 18:17:00,
2013-08-16 13:22:00,78.8,56.3,30.14,NNE,17,7.0,7.0,46,0.00,SCT,,0.00,884.0,WeatherDisplay:10.37,2013-08-16 18:22:00,
2013-08-16 13:27:00,79.4,55.6,30.14,NNE,30,10.4,10.4,44,0.00,SCT,,0.00,895.0,WeatherDisplay:10.37,2013-08-16 18:27:00,
2013-08-16 13:32:00,79.5,55.7,30.14,NE,44,4.6,4.6,44,0.00,BKN,,0.00,928.0,WeatherDisplay:10.37,2013-08-16 18:32:00,
2013-08-16 13:37:00,79.5,55.7,30.14,ENE,66,10.0,10.0,44,0.00,BKN,,0.00,257.0,WeatherDisplay:10.37,2013-08-16 18:37:00,
2013-08-16 13:42:00,79.5,55.7,30.14,East,94,4.6,4.6,44,0.00,BKN,,0.00,904.0,WeatherDisplay:10.37,2013-08-16 18:42:00,
2013-08-16 13:47:00,80.1,56.8,30.13,ENE,66,10.4,10.4,45,0.00,BKN,,0.00,872.0,WeatherDisplay:10.37,2013-08-16 18:47:00,
2013-08-16 13:52:00,80.7,56.1,30.13,ESE,102,6.9,6.9,43,0.00,BKN,,0.00,895.0,WeatherDisplay:10.37,2013-08-16 18:52:00,
2013-08-16 13:57:00,80.6,56.0,30.13,ESE,113,7.0,7.0,43,0.00,BKN,,0.00,911.0,WeatherDisplay:10.37,2013-08-16 18:57:00,
2013-08-16 14:02:00,80.3,56.4,30.13,East,94,5.0,5.0,44,0.00,SCT,,0.00,881.0,WeatherDisplay:10.37,2013-08-16 19:02:00,
2013-08-16 14:07:00,80.4,55.2,30.13,ESE,113,8.1,8.1,42,0.00,SCT,,0.00,909.0,WeatherDisplay:10.37,2013-08-16 19:07:00,
2013-08-16 14:12:00,80.6,54.7,30.13,ESE,114,6.9,6.9,41,0.00,SCT,,0.00,276.0,WeatherDisplay:10.37,2013-08-16 19:12:00,
2013-08-16 14:17:00,79.8,54.7,30.13,ESE,106,3.5,3.5,42,0.00,SCT,,0.00,315.0,WeatherDisplay:10.37,2013-08-16 19:17:00,
2013-08-16 14:22:00,79.3,54.9,30.13,ENE,78,6.9,6.9,43,0.00,SCT,,0.00,260.0,WeatherDisplay:10.37,2013-08-16 19:22:00,
2013-08-16 14:27:00,78.6,54.2,30.13,NE,53,4.6,4.6,43,0.00,SCT,,0.00,301.0,WeatherDisplay:10.37,2013-08-16 19:27:00,
2013-08-16 14:32:00,78.4,55.3,30.13,NE,36,8.0,8.0,45,0.00,SCT,,0.00,290.0,WeatherDisplay:10.37,2013-08-16 19:32:00,
2013-08-16 14:37:00,78.7,55.0,30.13,East,91,6.9,6.9,44,0.00,SCT,,0.00,334.0,WeatherDisplay:10.37,2013-08-16 19:37:00,
2013-08-16 14:42:00,78.7,55.0,30.12,East,80,5.8,5.8,44,0.00,SCT,,0.00,313.0,WeatherDisplay:10.37,2013-08-16 19:42:00,
2013-08-16 14:47:00,78.6,55.5,30.13,ENE,73,8.1,8.1,45,0.00,SCT,,0.00,279.0,WeatherDisplay:10.37,2013-08-16 19:47:00,
2013-08-16 14:52:00,78.4,55.9,30.12,East,82,5.8,5.8,46,0.00,SCT,,0.00,338.0,WeatherDisplay:10.37,2013-08-16 19:52:00,
2013-08-16 14:57:00,78.3,55.2,30.12,ENE,67,3.5,3.5,45,0.00,SCT,,0.00,262.0,WeatherDisplay:10.37,2013-08-16 19:57:00,
2013-08-16 15:02:00,78.0,55.5,30.12,ENE,65,5.0,5.0,46,0.00,SCT,,0.00,204.0,WeatherDisplay:10.37,2013-08-16 20:02:00,
2013-08-16 15:07:00,77.6,55.2,30.12,NNE,23,8.1,8.1,46,0.00,SCT,,0.00,207.0,WeatherDisplay:10.37,2013-08-16 20:07:00,
2013-08-16 15:12:00,77.6,55.8,30.12,NE,47,3.5,3.5,47,0.00,SCT,,0.00,722.0,WeatherDisplay:10.37,2013-08-16 20:12:00,
2013-08-16 15:17:00,78.6,56.1,30.12,East,92,9.0,9.0,46,0.00,SCT,,0.00,766.0,WeatherDisplay:10.37,2013-08-16 20:17:00,
2013-08-16 15:22:00,79.6,55.8,30.12,ENE,76,10.4,10.4,44,0.00,SCT,,0.00,274.0,WeatherDisplay:10.37,2013-08-16 20:22:00,
2013-08-16 15:27:00,80.0,56.7,30.12,ENE,70,8.1,8.1,45,0.00,SCT,,0.00,267.0,WeatherDisplay:10.37,2013-08-16 20:27:00,
2013-08-16 15:32:00,79.8,54.7,30.11,NNE,20,6.9,6.9,42,0.00,SCT,,0.00,232.0,WeatherDisplay:10.37,2013-08-16 20:32:00,
2013-08-16 15:37:00,79.5,56.3,30.11,ENE,78,6.9,6.9,45,0.00,SCT,,0.00,682.0,WeatherDisplay:10.37,2013-08-16 20:37:00,
2013-08-16 15:42:00,80.4,56.5,30.11,ESE,110,6.9,6.9,44,0.00,SCT,,0.00,615.0,WeatherDisplay:10.37,2013-08-16 20:42:00,
2013-08-16 15:47:00,80.1,55.6,30.12,ENE,72,10.4,10.4,43,0.00,SCT,,0.00,190.0,WeatherDisplay:10.37,2013-08-16 20:47:00,
2013-08-16 15:52:00,79.6,56.4,30.12,ESE,109,9.2,9.2,45,0.00,SCT,,0.00,629.0,WeatherDisplay:10.37,2013-08-16 20:52:00,
2013-08-16 15:57:00,79.9,56.0,30.12,NE,49,8.1,8.1,44,0.00,SCT,,0.00,612.0,WeatherDisplay:10.37,2013-08-16 20:57:00,
2013-08-16 16:02:00,79.9,56.0,30.12,ESE,115,9.2,9.2,44,0.00,SCT,,0.00,610.0,WeatherDisplay:10.37,2013-08-16 21:02:00,
2013-08-16 16:07:00,80.1,56.2,30.12,East,80,8.1,8.1,44,0.00,SCT,,0.00,596.0,WeatherDisplay:10.37,2013-08-16 21:07:00,
2013-08-16 16:12:00,80.2,55.7,30.12,NE,40,6.9,6.9,43,0.00,SCT,,0.00,575.0,WeatherDisplay:10.37,2013-08-16 21:12:00,
2013-08-16 16:17:00,80.1,56.2,30.12,ESE,110,7.0,7.0,44,0.00,SCT,,0.00,559.0,WeatherDisplay:10.37,2013-08-16 21:17:00,
2013-08-16 16:22:00,80.2,55.7,30.12,East,80,8.1,8.1,43,0.00,SCT,,0.00,550.0,WeatherDisplay:10.37,2013-08-16 21:22:00,
2013-08-16 16:27:00,79.8,55.3,30.12,ENE,63,11.5,11.5,43,0.00,SCT,,0.00,566.0,WeatherDisplay:10.37,2013-08-16 21:27:00,
2013-08-16 16:32:00,79.6,56.4,30.12,NE,42,9.2,9.2,45,0.00,SCT,,0.00,547.0,WeatherDisplay:10.37,2013-08-16 21:32:00,
2013-08-16 16:37:00,79.7,55.9,30.12,East,86,14.0,14.0,44,0.00,SCT,,0.00,543.0,WeatherDisplay:10.37,2013-08-16 21:37:00,
2013-08-16 16:42:00,79.4,55.6,30.12,ENE,60,11.5,11.5,44,0.00,SCT,,0.00,515.0,WeatherDisplay:10.37,2013-08-16 21:42:00,
2013-08-16 16:48:00,79.3,56.7,30.12,ENE,57,10.0,10.0,46,0.00,SCT,,0.00,473.0,WeatherDisplay:10.37,2013-08-16 21:48:00,
2013-08-16 16:53:00,79.3,55.5,30.12,East,101,10.4,10.4,44,0.00,SCT,,0.00,450.0,WeatherDisplay:10.37,2013-08-16 21:53:00,
2013-08-16 16:58:00,79.1,56.5,30.12,ENE,75,9.2,9.2,46,0.00,SCT,,0.00,429.0,WeatherDisplay:10.37,2013-08-16 21:58:00,
2013-08-16 17:03:00,79.0,55.2,30.12,East,89,8.1,8.1,44,0.00,SCT,,0.00,403.0,WeatherDisplay:10.37,2013-08-16 22:03:00,
2013-08-16 17:08:00,78.7,55.6,30.12,East,80,6.9,6.9,45,0.00,SCT,,0.00,404.0,WeatherDisplay:10.37,2013-08-16 22:08:00,
2013-08-16 17:13:00,78.6,54.9,30.12,ESE,108,6.9,6.9,44,0.00,SCT,,0.00,399.0,WeatherDisplay:10.37,2013-08-16 22:13:00,
2013-08-16 17:18:00,78.4,54.7,30.12,East,85,9.2,9.2,44,0.00,SCT,,0.00,406.0,WeatherDisplay:10.37,2013-08-16 22:18:00,
2013-08-16 17:23:00,78.5,55.4,30.12,ESE,102,7.0,7.0,45,0.00,SCT,,0.00,417.0,WeatherDisplay:10.37,2013-08-16 22:23:00,
2013-08-16 17:28:00,78.8,56.3,30.12,NE,46,11.5,11.5,46,0.00,SCT,,0.00,383.0,WeatherDisplay:10.37,2013-08-16 22:28:00,
2013-08-16 17:33:00,78.7,55.6,30.12,ENE,58,9.2,9.2,45,0.00,SCT,,0.00,341.0,WeatherDisplay:10.37,2013-08-16 22:33:00,
2013-08-16 17:38:00,78.5,56.0,30.12,East,82,9.2,9.2,46,0.00,SCT,,0.00,316.0,WeatherDisplay:10.37,2013-08-16 22:38:00,
2013-08-16 17:43:00,78.2,55.7,30.12,NE,56,8.1,8.1,46,0.00,SCT,,0.00,306.0,WeatherDisplay:10.37,2013-08-16 22:43:00,
2013-08-16 17:48:00,77.5,55.1,30.12,ENE,71,9.2,9.2,46,0.00,CLR,,0.00,285.0,WeatherDisplay:10.37,2013-08-16 22:48:00,
2013-08-16 17:53:00,77.3,55.5,30.12,East,82,6.9,6.9,47,0.00,CLR,,0.00,271.0,WeatherDisplay:10.37,2013-08-16 22:53:00,
2013-08-16 17:58:00,77.3,55.5,30.12,East,93,9.2,9.2,47,0.00,CLR,,0.00,258.0,WeatherDisplay:10.37,2013-08-16 22:58:00,
2013-08-16 18:03:00,77.2,55.4,30.12,East,97,9.2,9.2,47,0.00,CLR,,0.00,243.0,WeatherDisplay:10.37,2013-08-16 23:03:00,
2013-08-16 18:08:00,76.9,55.7,30.12,ESE,107,5.8,5.8,48,0.00,CLR,,0.00,225.0,WeatherDisplay:10.37,2013-08-16 23:08:00,
2013-08-16 18:13:00,76.7,55.5,30.12,East,101,5.8,5.8,48,0.00,CLR,,0.00,209.0,WeatherDisplay:10.37,2013-08-16 23:13:00,
2013-08-16 18:18:00,76.4,55.3,30.12,ENE,76,8.1,8.1,48,0.00,CLR,,0.00,192.0,WeatherDisplay:10.37,2013-08-16 23:18:00,
2013-08-16 18:23:00,76.2,55.6,30.12,NNE,31,9.2,9.2,49,0.00,CLR,,0.00,171.0,WeatherDisplay:10.37,2013-08-16 23:23:00,
2013-08-16 18:29:00,75.8,55.3,30.12,East,82,6.9,6.9,49,0.00,CLR,,0.00,151.0,WeatherDisplay:10.37,2013-08-16 23:29:00,
2013-08-16 18:34:00,75.5,55.6,30.12,East,84,6.9,6.9,50,0.00,CLR,,0.00,132.0,WeatherDisplay:10.37,2013-08-16 23:34:00,
2013-08-16 18:39:00,75.0,55.1,30.12,East,91,5.8,5.8,50,0.00,CLR,,0.00,121.0,WeatherDisplay:10.37,2013-08-16 23:39:00,
2013-08-16 18:44:00,74.5,55.2,30.12,East,93,6.9,6.9,51,0.00,CLR,,0.00,49.0,WeatherDisplay:10.37,2013-08-16 23:44:00,
2013-08-16 18:49:00,74.0,54.7,30.12,ESE,107,4.6,4.6,51,0.00,CLR,,0.00,46.0,WeatherDisplay:10.37,2013-08-16 23:49:00,
2013-08-16 18:54:00,73.6,55.9,30.12,ESE,109,3.5,3.5,54,0.00,CLR,,0.00,42.0,WeatherDisplay:10.37,2013-08-16 23:54:00,
2013-08-16 18:59:00,73.0,56.4,30.13,ESE,108,3.5,3.5,56,0.00,CLR,,0.00,39.0,WeatherDisplay:10.37,2013-08-16 23:59:00,
2013-08-16 19:04:00,72.5,56.9,30.13,East,89,2.3,2.3,58,0.00,CLR,,0.00,35.0,WeatherDisplay:10.37,2013-08-17 00:04:00,
2013-08-16 19:09:00,71.9,57.3,30.13,East,89,2.3,0.0,60,0.00,CLR,,0.00,32.0,WeatherDisplay:10.37,2013-08-17 00:09:00,
2013-08-16 19:14:00,71.4,57.2,30.13,East,89,1.1,1.1,61,0.00,CLR,,0.00,28.0,WeatherDisplay:10.37,2013-08-17 00:14:00,
2013-08-16 19:19:00,70.8,57.1,30.13,East,89,2.3,2.3,62,0.00,CLR,,0.00,25.0,WeatherDisplay:10.37,2013-08-17 00:19:00,
2013-08-16 19:24:00,70.3,57.1,30.13,East,89,0.0,0.0,63,0.00,CLR,,0.00,19.0,WeatherDisplay:10.37,2013-08-17 00:24:00,
2013-08-16 19:29:00,69.8,57.1,30.13,East,89,0.0,0.0,64,0.00,CLR,,0.00,18.0,WeatherDisplay:10.37,2013-08-17 00:29:00,
2013-08-16 19:34:00,69.4,57.1,30.13,North,360,0.0,0.0,65,0.00,CLR,,0.00,14.0,WeatherDisplay:10.37,2013-08-17 00:34:00,
2013-08-16 19:39:00,69.0,57.2,30.13,North,360,0.0,0.0,66,0.00,CLR,,0.00,11.0,WeatherDisplay:10.37,2013-08-17 00:39:00,
2013-08-16 19:44:00,68.4,57.0,30.13,ESE,117,2.0,2.0,67,0.00,CLR,,0.00,7.0,WeatherDisplay:10.37,2013-08-17 00:44:00,
2013-08-16 19:49:00,67.7,56.3,30.13,ESE,117,2.3,2.3,67,0.00,CLR,,0.00,0.0,WeatherDisplay:10.37,2013-08-17 00:49:00,
2013-08-16 19:54:00,67.2,56.3,30.13,ESE,117,0.0,0.0,68,0.00,CLR,,0.00,0.0,WeatherDisplay:10.37,2013-08-17 00:54:00,
2013-08-16 19:59:00,66.7,56.2,30.14,ESE,117,0.0,0.0,69,0.00,CLR,,0.00,0.0,WeatherDisplay:10.37,2013-08-17 00:59:00,
2013-08-16 20:04:00,66.2,56.5,30.14,ESE,117,0.0,0.0,71,0.00,CLR,,0.00,0.0,WeatherDisplay:10.37,2013-08-17 01:04:00,
2013-08-16 20:09:00,65.7,56.8,30.14,ESE,117,0.0,0.0,73,0.00,CLR,,0.00,0.0,WeatherDisplay:10.37,2013-08-17 01:09:00,
2013-08-16 20:14:00,64.9,56.4,30.14,ESE,117,0.0,0.0,74,0.00,CLR,,0.00,0.0,WeatherDisplay:10.37,2013-08-17 01:14:00,
2013-08-16 20:19:00,64.2,56.1,30.14,ESE,117,0.0,0.0,75,0.00,CLR,,0.00,0.0,WeatherDisplay:10.37,2013-08-17 01:19:00,
2013-08-16 20:24:00,63.7,56.0,30.14,ESE,117,0.0,0.0,76,0.00,CLR,,0.00,0.0,WeatherDisplay:10.37,2013-08-17 01:24:00,
2013-08-16 20:29:00,63.3,55.6,30.14,ESE,117,0.0,0.0,76,0.00,CLR,,0.00,0.0,WeatherDisplay:10.37,2013-08-17 01:29:00,
2013-08-16 20:34:00,62.7,55.7,30.15,ESE,117,0.0,0.0,78,0.00,CLR,,0.00,0.0,WeatherDisplay:10.37,2013-08-17 01:34:00,
2013-08-16 20:39:00,62.1,55.5,30.15,ESE,117,0.0,0.0,79,0.00,CLR,,0.00,0.0,WeatherDisplay:10.37,2013-08-17 01:39:00,
2013-08-16 20:44:00,61.7,55.1,30.15,ESE,117,0.0,0.0,79,0.00,CLR,,0.00,0.0,WeatherDisplay:10.37,2013-08-17 01:44:00,
2013-08-16 20:49:00,61.4,54.8,30.15,ESE,117,0.0,0.0,79,0.00,CLR,,0.00,0.0,WeatherDisplay:10.37,2013-08-17 01:49:00,
2013-08-16 20:54:00,61.1,54.5,30.15,ESE,117,0.0,0.0,79,0.00,CLR,,0.00,0.0,WeatherDisplay:10.37,2013-08-17 01:54:00,
2013-08-16 20:59:00,60.5,54.0,30.15,ESE,117,0.0,0.0,79,0.00,CLR,,0.00,0.0,WeatherDisplay:10.37,2013-08-17 01:59:00,
2013-08-16 21:04:00,60.0,53.8,30.16,ESE,117,0.0,0.0,80,0.00,CLR,,0.00,0.0,WeatherDisplay:10.37,2013-08-17 02:04:00,
2013-08-16 21:09:00,59.6,53.8,30.16,ESE,117,0.0,0.0,81,0.00,CLR,,0.00,0.0,WeatherDisplay:10.37,2013-08-17 02:09:00,
2013-08-16 21:14:00,59.3,53.8,30.16,ESE,117,0.0,0.0,82,0.00,CLR,,0.00,0.0,WeatherDisplay:10.37,2013-08-17 02:14:00,
2013-08-16 21:19:00,58.7,53.2,30.16,ESE,117,0.0,0.0,82,0.00,CLR,,0.00,0.0,WeatherDisplay:10.37,2013-08-17 02:19:00,
2013-08-16 21:24:00,58.2,53.4,30.16,ESE,117,0.0,0.0,84,0.00,CLR,,0.00,0.0,WeatherDisplay:10.37,2013-08-17 02:24:00,
2013-08-16 21:29:00,58.0,53.5,30.16,ESE,117,0.0,0.0,85,0.00,CLR,,0.00,0.0,WeatherDisplay:10.37,2013-08-17 02:29:00,
2013-08-16 21:34:00,58.1,53.9,30.16,ESE,117,0.0,0.0,86,0.00,CLR,,0.00,0.0,WeatherDisplay:10.37,2013-08-17 02:34:00,
2013-08-16 21:39:00,58.1,53.6,30.16,ESE,117,0.0,0.0,85,0.00,CLR,,0.00,0.0,WeatherDisplay:10.37,2013-08-17 02:39:00,
2013-08-16 21:44:00,58.1,53.3,30.16,ESE,117,0.0,0.0,84,0.00,CLR,,0.00,0.0,WeatherDisplay:10.37,2013-08-17 02:44:00,
2013-08-16 21:49:00,57.7,52.9,30.16,ESE,117,0.0,0.0,84,0.00,CLR,,0.00,0.0,WeatherDisplay:10.37,2013-08-17 02:49:00,
2013-08-16 21:54:00,57.2,52.7,30.16,ESE,117,0.0,0.0,85,0.00,CLR,,0.00,0.0,WeatherDisplay:10.37,2013-08-17 02:54:00,
2013-08-16 21:59:00,56.8,52.7,30.16,ESE,117,0.0,0.0,86,0.00,CLR,,0.00,0.0,WeatherDisplay:10.37,2013-08-17 02:59:00,
2013-08-16 22:04:00,56.4,52.6,30.16,ESE,117,0.0,0.0,87,0.00,CLR,,0.00,0.0,WeatherDisplay:10.37,2013-08-17 03:04:00,
2013-08-16 22:09:00,56.4,52.9,30.16,North,10,3.5,3.5,88,0.00,CLR,,0.00,0.0,WeatherDisplay:10.37,2013-08-17 03:09:00,
2013-08-16 22:14:00,56.5,53.0,30.16,North,5,3.5,3.5,88,0.00,CLR,,0.00,0.0,WeatherDisplay:10.37,2013-08-17 03:14:00,
2013-08-16 22:19:00,56.8,53.6,30.16,North,5,0.0,0.0,89,0.00,CLR,,0.00,0.0,WeatherDisplay:10.37,2013-08-17 03:19:00,
2013-08-16 22:24:00,56.9,53.4,30.17,North,5,2.3,2.3,88,0.00,CLR,,0.00,0.0,WeatherDisplay:10.37,2013-08-17 03:24:00,
2013-08-16 22:29:00,56.7,52.9,30.17,North,5,2.3,2.3,87,0.00,CLR,,0.00,0.0,WeatherDisplay:10.37,2013-08-17 03:29:00,
2013-08-16 22:34:00,56.7,53.2,30.17,North,5,2.0,2.0,88,0.00,CLR,,0.00,0.0,WeatherDisplay:10.37,2013-08-17 03:34:00,
2013-08-16 22:39:00,56.8,53.3,30.17,North,5,2.3,2.3,88,0.00,CLR,,0.00,0.0,WeatherDisplay:10.37,2013-08-17 03:39:00,
2013-08-16 22:44:00,57.1,53.3,30.17,North,5,2.3,2.3,87,0.00,CLR,,0.00,0.0,WeatherDisplay:10.37,2013-08-17 03:44:00,
2013-08-16 22:49:00,57.1,53.0,30.17,North,5,3.5,3.5,86,0.00,CLR,,0.00,0.0,WeatherDisplay:10.37,2013-08-17 03:49:00,
2013-08-16 22:54:00,56.7,52.2,30.17,North,5,2.3,2.3,85,0.00,CLR,,0.00,0.0,WeatherDisplay:10.37,2013-08-17 03:54:00,
2013-08-16 22:59:00,56.6,52.8,30.17,North,5,2.3,2.3,87,0.00,CLR,,0.00,0.0,WeatherDisplay:10.37,2013-08-17 03:59:00,
2013-08-16 23:01:00,56.6,52.8,30.17,North,5,2.3,2.3,87,0.00,CLR,,0.00,0.0,WeatherDisplay:10.37,2013-08-17 04:01:00,
2013-08-16 23:06:00,56.5,52.7,30.17,North,5,0.0,0.0,87,0.00,CLR,,0.00,0.0,WeatherDisplay:10.37,2013-08-17 04:06:00,
2013-08-16 23:11:00,56.4,52.6,30.17,North,5,0.0,0.0,87,0.00,CLR,,0.00,0.0,WeatherDisplay:10.37,2013-08-17 04:11:00,
2013-08-16 23:16:00,56.4,52.6,30.17,North,5,0.0,0.0,87,0.00,CLR,,0.00,0.0,WeatherDisplay:10.37,2013-08-17 04:16:00,
2013-08-16 23:21:00,56.5,52.7,30.17,North,5,0.0,0.0,87,0.00,CLR,,0.00,0.0,WeatherDisplay:10.37,2013-08-17 04:21:00,
2013-08-16 23:26:00,56.3,52.2,30.17,North,5,0.0,0.0,86,0.00,CLR,,0.00,0.0,WeatherDisplay:10.37,2013-08-17 04:26:00,
2013-08-16 23:31:00,56.0,51.9,30.17,North,5,0.0,0.0,86,0.00,CLR,,0.00,0.0,WeatherDisplay:10.37,2013-08-17 04:31:00,
2013-08-16 23:36:00,55.9,51.8,30.17,North,5,0.0,0.0,86,0.00,CLR,,0.00,0.0,WeatherDisplay:10.37,2013-08-17 04:36:00,
2013-08-16 23:41:00,55.8,52.0,30.18,North,5,0.0,0.0,87,0.00,CLR,,0.00,0.0,WeatherDisplay:10.37,2013-08-17 04:41:00,
2013-08-16 23:46:00,55.6,51.8,30.18,North,5,0.0,0.0,87,0.00,CLR,,0.00,0.0,WeatherDisplay:10.37,2013-08-17 04:46:00,
2013-08-16 23:51:00,55.2,51.4,30.18,North,5,0.0,0.0,87,0.00,CLR,,0.00,0.0,WeatherDisplay:10.37,2013-08-17 04:51:00,
2013-08-16 23:56:00,55.3,52.1,30.18,North,5,0.0,0.0,89,0.00,CLR,,0.00,0.0,WeatherDisplay:10.37,2013-08-17 04:56:00,